Regional Weather Roundup
Issued by NWS San Diego, CA

Home | Current Version | Previous Version | Text Only | Print | Product List | Glossary On
Versions: 1 2 3 4 5 6 7 8 9 10 11 12 13 14 15 16 17 18 19 20 21 22 23 24 25 26 27 28 29 30 31 32 33 34 35 36 37 38 39 40 41 42 43 44 45 46 47 48 49 50
000
ASUS46 KSGX 051311
RWRSGX

SAN DIEGO HOURLY WEATHER ROUNDUP
NATIONAL WEATHER SERVICE SAN DIEGO CA
600 AM PDT THU MAY 05 2016

NOTE: "FAIR" INDICATES FEW OR NO CLOUDS BELOW 12,000 FEET WITH NO
SIGNIFICANT WEATHER AND/OR OBSTRUCTIONS TO VISIBILITY.

CAZ042-043-060-061-PZZ750-775-051400-

GREATER SAN DIEGO AREA

CITY           SKY/WX    TMP DP  RH WIND       PRES   REMARKS
LINDBERGH FLD  CLOUDY    62  50  64 CALM      29.93S
POINT LOMA       N/A     59  58  97 S2          N/A
NATIONAL CITY    N/A    N/A N/A N/A CALM      29.93S
CHULA VISTA      N/A     60  55  83 S1        29.84S
IMPERIAL BEACH CLOUDY    61  52  72 CALM      29.92S
BROWN FIELD    CLOUDY    58  50  75 CALM      29.92S
MIRAMAR MCAS   CLOUDY    62  51  67 CALM      29.91S
MONTGOMERY FLD CLOUDY    60  50  69 W3        29.92S

$$

NORTH SAN DIEGO COUNTY

CITY           SKY/WX    TMP DP  RH WIND       PRES   REMARKS
CAMP PENDLETON CLOUDY    58  52  80 CALM      29.91S
OCEANSIDE AP   CLOUDY    59  51  75 CALM      29.91S
OCEANSIDE HBR    N/A     60  55  83 CALM      29.93F
VISTA            N/A     58  53  83 CALM      29.90S
CARLSBAD       CLOUDY    60  53  77 CALM      29.90F
DEL MAR          N/A     59  54  84 CALM      29.94S
LA JOLLA SCRIP   N/A     60  54  82 S2        29.91S
FALLBROOK        N/A     57  56  95 CALM      29.90S
ESCONDIDO        N/A     58  52  79 S3        29.93S
SAN MARCOS       N/A     57  48  72 CALM      29.90R

$$

EAST SAN DIEGO COUNTY

CITY           SKY/WX    TMP DP  RH WIND       PRES   REMARKS
RAMONA         CLOUDY    54  48  80 NW5       29.92S
SANTEE LAKES     N/A     58  53  82 CALM      29.91S
LA MESA          N/A     56  53  91 CALM      29.85S
JAMUL            N/A     55  51  85 CALM      29.92R
DESCANSO N       N/A     48  46  94 CALM      29.74S
MT. LAGUNA OBS   N/A     40  27  60 SW2       29.53
CAMPO            N/A     49  48  97 SW7       29.88R

$$

ORANGE COUNTY AND THE LOS ANGELES BASIN

CITY           SKY/WX    TMP DP  RH WIND       PRES   REMARKS
JOHN WAYNE AP  CLOUDY    60  52  74 E6        29.90F
LAKE FOREST FR   N/A     56  49  80 CALM      29.82R
HUNTINGTON BCH   N/A     59  55  85 CALM      29.92F
LOS ALAMITOS   FAIR      60  53  79 CALM      29.90S
FULLERTON      CLOUDY    62  32  32 E3        29.89F
LONG BEACH     CLOUDY    60  52  74 CALM      29.90F
L.A. AP        CLOUDY    60  52  74 NW3       29.90S
L.A. DOWNTOWN  CLOUDY    60  52  74 CALM      29.89F

$$

THE INLAND EMPIRE

CITY           SKY/WX    TMP DP  RH WIND       PRES   REMARKS
CORONA         CLOUDY    58  52  80 NW5       29.92R
CHINO          CLOUDY    58  52  80 W6        29.92S
ONTARIO        CLOUDY    56  51  84 W7        29.91R
RIVERSIDE AP   CLOUDY    57  52  83 CALM      29.91R
MORENO VALLEY    N/A     55  54  97 CALM      28.03S
MARCH ARB      CLOUDY    56  51  82 SE5       29.90S
HORSETHIEF CYN   N/A     56  46  69 CALM      29.92S
PERRIS           N/A     55  51  88 S2        29.90S
HEMET EAST       N/A     85  34  15 CALM      29.81S
FRENCH VALLEY  CLOUDY    55  48  76 SE5       29.92R
TEMECULA         N/A     56  53  89 S2        29.88S

$$

SAN BERNARDINO AND RIVERSIDE COUNTY MOUNTAINS

CITY           SKY/WX    TMP DP  RH WIND       PRES   REMARKS
BIG BEAR AP    CLEAR     32  23  69 CALM      29.95S
ANGELUS OAKS     N/A     37  29  73 CALM      29.71R
PINE COVE        N/A     46  12  25 CALM      29.74F

$$

SOUTHERN DESERT INCLUDING THE COACHELLA VALLEY

CITY           SKY/WX    TMP DP  RH WIND       PRES   REMARKS
PALM SPRINGS   CLEAR     66  46  48 NW13G18   29.76R
THOUSAND PALMS   N/A     65  47  52 NW17      29.73R
PALM DESERT      N/A     63  48  57 CALM      31.15S
THERMAL        CLEAR     66  46  48 NW9       29.72R
BLYTHE         PTCLDY    68  42  38 S7        29.77R
IMPERIAL AP    CLEAR     65  47  52 W15       29.74R
EL CENTRO NAS  MOCLDY    65  46  50 W28G36    29.77S
YUMA AZ        MOCLDY    68  47  46 S8        29.77

$$

UPPER DESERT

CITY           SKY/WX    TMP DP  RH WIND       PRES   REMARKS
VICTORVILLE AP CLEAR     48  43  81 W7        29.86S
HESPERIA         N/A     50  45  82 SW8       29.88R
PALMDALE       CLEAR     51  43  74 SW22      29.84F
LANCASTER      CLEAR     51  42  71 W15       29.87S
EDWARDS AFB    PTCLDY    51  43  72 SW18G28   29.83R
DAGGETT        MOCLDY    56  44  64 W21       29.83R
29 PALMS N     PTCLDY    58  32  37 NW8       29.84F
NEEDLES        CLEAR     74  34  23 SW8       29.77R

$$

REGIONAL REPORTS

CITY           SKY/WX    TMP DP  RH WIND       PRES   REMARKS
SANTA BARBARA  PTCLDY    50  48  93 CALM      29.89S
SANDBERG       CLOUDY    44  40  85 S15G24    29.90S
LAS VEGAS NV   MOCLDY    70  33  25 CALM      29.76R
PHOENIX AZ     PTCLDY    73  25  16 E10       29.81R
TIJUANA        MOCLDY    59  46  63 CALM      29.93
ENSENADA NW      N/A     60  32  35 CALM      29.90F

$$

OFFSHORE ISLANDS

CITY           SKY/WX    TMP DP  RH WIND       PRES   REMARKS
CATALINA ARPT  LGT RAIN  52  51  97 SW8       29.91S FOG
SAN NICOLAS IS CLOUDY   N/A N/A N/A W5        29.90F

$$

MARINE AND OFFSHORE BUOY REPORTS

STATION/POSITION SKY/WX   TEMP    WIND        PRES    SWELL
                          AIR SEA DIR/SP/G            HT/PER/DIR
                          (F)     (DEG/KT/KT) (MB)    (FT/S/D)
TANNER BANKS               60 61   30/  2/  4 1012.3F   5/240/12
S CLEMENTE BASIN           60 62  200/  8/ 10 1012.6F   3/200/15
SAN NICOLAS IS.               60                N/A     3/280/11
SO. S. ROSA ISLA           56 56  180/  2/  4 1012.4F   5/290/11
W. S. BARBARA CH           56 57   90/  2/  4 1011.7F   5/290/10
M. S. BARBARA CH           56 57  180/  4/  4 1012.9F
S. MONICA BASIN            59 61  340/  4/  6 1012.8F   3/220/15
S PEDRO CHANNEL               60                N/A     2/180/14
OCEANSIDE OFFSHR              64                N/A     3/200/15
TORREY PINES OTR              65                N/A     3/200/14
LA JOLLA 1                 61 66  270/  3/  4 1012.9R
SAN DIEGO BAY                 68              1013.3S
POINT LOMA SOUTH              63                N/A     3/210/15

$$




USA.gov is the U.S. government's official web portal to all federal, state and local government web resources and services.